RYR98FC EPPO-LDDU

Flight info

Callsign RYR98FC
Flight time N/A
Altitude 37000
Route XIDNA2B XIDNA DCT MIKOV DCT STEIN DCT KOPRY DCT NETKO NETKO1H
Aircraft B738/M-SDE2E3FGHIRWXY/LB1

Departure

Time N/A
Airport Poznań-Ławica Airport (EPPO)

Arrival

Time 2026-04-29 23:00
Airport Dubrovnik Ruđer Bošković Airport (LDDU)
Time Latitude Longitude Altitude Speed Heading
2026-04-29 21:56 49.27150 16.68079 37425 ft 475 kts 185°
2026-04-29 21:56 49.23856 16.67671 37430 ft 474 kts 185°
2026-04-29 21:56 49.17323 16.66861 37426 ft 474 kts 185°
2026-04-29 21:57 49.10689 16.66043 37436 ft 475 kts 185°
2026-04-29 21:57 49.04135 16.65236 37432 ft 477 kts 185°
2026-04-29 21:58 48.97519 16.64425 37405 ft 478 kts 185°
2026-04-29 21:58 48.90890 16.63612 37419 ft 479 kts 185°
2026-04-29 21:59 48.84243 16.62799 37424 ft 480 kts 185°
2026-04-29 21:59 48.77573 16.62028 37405 ft 481 kts 183°
2026-04-29 22:00 48.70866 16.61823 37411 ft 483 kts 181°
2026-04-29 22:00 48.64141 16.61807 37411 ft 484 kts 181°
2026-04-29 22:01 48.57403 16.61759 37407 ft 485 kts 181°
2026-04-29 22:01 48.50653 16.61668 37403 ft 483 kts 182°
2026-04-29 22:02 48.44004 16.61562 37406 ft 474 kts 182°
2026-04-29 22:02 48.37413 16.61455 37400 ft 473 kts 182°
2026-04-29 22:03 48.30833 16.61350 37386 ft 473 kts 183°
2026-04-29 22:03 48.24247 16.61244 37402 ft 473 kts 183°
2026-04-29 22:04 48.17655 16.61143 37407 ft 475 kts 183°
2026-04-29 22:04 48.11030 16.61040 37411 ft 477 kts 183°
2026-04-29 22:05 48.04419 16.60938 37399 ft 479 kts 183°
2026-04-29 22:06 47.94376 16.60784 37411 ft 483 kts 183°
2026-04-29 22:06 47.87632 16.60680 37393 ft 485 kts 182°
2026-04-29 22:07 47.81973 16.60595 37364 ft 486 kts 183°
2026-04-29 22:07 47.75272 16.60493 37363 ft 484 kts 183°
2026-04-29 22:08 47.68542 16.60390 37356 ft 483 kts 183°
2026-04-29 22:08 47.61843 16.60290 37359 ft 481 kts 183°
2026-04-29 22:09 47.55171 16.60188 37343 ft 478 kts 183°
2026-04-29 22:09 47.48539 16.60087 37345 ft 476 kts 183°
2026-04-29 22:10 47.41926 16.60215 37328 ft 476 kts 175°
2026-04-29 22:10 47.35433 16.62123 37340 ft 475 kts 169°
2026-04-29 22:11 47.28993 16.64240 37331 ft 474 kts 169°
2026-04-29 22:11 47.22551 16.66296 37333 ft 473 kts 170°
2026-04-29 22:12 47.16120 16.68299 37316 ft 473 kts 171°
2026-04-29 22:12 47.09670 16.70289 37330 ft 474 kts 171°
2026-04-29 22:13 47.03213 16.72276 37329 ft 475 kts 171°
2026-04-29 22:13 46.96744 16.74266 37301 ft 476 kts 171°
2026-04-29 22:14 46.90258 16.76255 37314 ft 476 kts 171°
2026-04-29 22:14 46.83807 16.78227 37317 ft 477 kts 171°
2026-04-29 22:15 46.77306 16.80211 37310 ft 478 kts 171°
2026-04-29 22:15 46.70796 16.82190 37307 ft 478 kts 172°
2026-04-29 22:16 46.64282 16.84170 37333 ft 479 kts 172°
2026-04-29 22:16 46.57752 16.86151 37306 ft 480 kts 172°
2026-04-29 22:17 46.51209 16.88127 37299 ft 479 kts 173°
2026-04-29 22:17 46.44675 16.90096 37303 ft 479 kts 173°
2026-04-29 22:18 46.38145 16.92061 37289 ft 480 kts 173°
2026-04-29 22:18 46.31612 16.94021 37269 ft 480 kts 173°
2026-04-29 22:19 46.25081 16.95976 37285 ft 479 kts 173°
2026-04-29 22:19 46.18550 16.97726 37295 ft 476 kts 176°
2026-04-29 22:20 46.12005 16.99167 37278 ft 475 kts 176°
2026-04-29 22:20 46.05482 17.00591 37288 ft 474 kts 176°
2026-04-29 22:21 45.98966 17.02058 37274 ft 473 kts 176°
2026-04-29 22:21 45.92469 17.03542 37277 ft 473 kts 176°
2026-04-29 22:22 45.86007 17.05020 37273 ft 473 kts 176°
2026-04-29 22:22 45.79514 17.06502 37274 ft 473 kts 176°
2026-04-29 22:23 45.73011 17.07979 37277 ft 473 kts 176°
2026-04-29 22:23 45.66518 17.09451 37249 ft 473 kts 178°
2026-04-29 22:24 45.60030 17.10919 37268 ft 472 kts 178°
2026-04-29 22:24 45.53541 17.12382 37273 ft 472 kts 178°
2026-04-29 22:25 45.47061 17.13843 37270 ft 472 kts 178°
2026-04-29 22:25 45.40577 17.15298 37266 ft 471 kts 178°
2026-04-29 22:26 45.34104 17.16748 37272 ft 471 kts 178°
2026-04-29 22:26 45.27642 17.18195 37263 ft 470 kts 178°
2026-04-29 22:27 45.21187 17.19636 37283 ft 468 kts 178°
2026-04-29 22:27 45.14748 17.21067 37271 ft 469 kts 178°
2026-04-29 22:28 45.08294 17.22498 37279 ft 469 kts 178°
2026-04-29 22:28 45.01839 17.23926 37273 ft 470 kts 178°
2026-04-29 22:29 44.95371 17.25356 37287 ft 470 kts 178°
2026-04-29 22:29 44.88887 17.26785 36916 ft 474 kts 178°
2026-04-29 22:29 44.85651 17.27501 36592 ft 467 kts 179°
2026-04-29 22:30 44.82455 17.28208 36183 ft 463 kts 179°
2026-04-29 22:30 44.79286 17.28908 35815 ft 459 kts 179°
2026-04-29 22:30 44.76182 17.29591 35412 ft 456 kts 179°
2026-04-29 22:30 44.73023 17.30284 35048 ft 452 kts 179°
2026-04-29 22:31 44.69963 17.30954 34650 ft 449 kts 180°
2026-04-29 22:31 44.66848 17.31636 34232 ft 446 kts 180°
2026-04-29 22:31 44.63832 17.32294 33780 ft 443 kts 180°
2026-04-29 22:31 44.60804 17.32952 33380 ft 439 kts 180°
2026-04-29 22:32 44.57796 17.33608 32994 ft 435 kts 179°
2026-04-29 22:32 44.54812 17.34256 32613 ft 432 kts 180°
2026-04-29 22:32 44.51851 17.34899 32237 ft 429 kts 180°
2026-04-29 22:32 44.48908 17.35539 31874 ft 426 kts 180°
2026-04-29 22:33 44.45985 17.36175 31500 ft 423 kts 180°
2026-04-29 22:33 44.43090 17.36793 31115 ft 420 kts 179°
2026-04-29 22:33 44.40213 17.37417 30768 ft 417 kts 179°
2026-04-29 22:33 44.37357 17.38034 30433 ft 414 kts 179°
2026-04-29 22:34 44.34520 17.38650 30028 ft 412 kts 179°
2026-04-29 22:34 44.31685 17.39264 29623 ft 409 kts 179°
2026-04-29 22:34 44.28885 17.39873 29250 ft 406 kts 179°
2026-04-29 22:34 44.26106 17.40474 28872 ft 402 kts 179°
2026-04-29 22:35 44.23354 17.41067 28459 ft 399 kts 178°
2026-04-29 22:35 44.20631 17.41654 28157 ft 393 kts 178°
2026-04-29 22:35 44.17935 17.42232 27789 ft 391 kts 178°
2026-04-29 22:35 44.15260 17.42806 27419 ft 388 kts 178°
2026-04-29 22:36 44.12596 17.43376 27059 ft 386 kts 178°
2026-04-29 22:36 44.09957 17.43942 26702 ft 383 kts 178°
2026-04-29 22:36 44.07329 17.44504 26342 ft 381 kts 178°
2026-04-29 22:36 44.04720 17.45062 25997 ft 378 kts 178°
2026-04-29 22:37 44.02132 17.45616 25626 ft 375 kts 178°
2026-04-29 22:37 43.99559 17.46165 25293 ft 373 kts 177°
2026-04-29 22:37 43.97002 17.46710 24952 ft 370 kts 177°
2026-04-29 22:37 43.94462 17.47250 24616 ft 369 kts 177°
2026-04-29 22:38 43.91929 17.47787 24287 ft 368 kts 177°
2026-04-29 22:38 43.89400 17.48327 23915 ft 367 kts 177°
2026-04-29 22:38 43.86921 17.48857 23547 ft 365 kts 177°
2026-04-29 22:38 43.84412 17.49390 23165 ft 363 kts 177°
2026-04-29 22:39 43.81926 17.49917 22801 ft 360 kts 176°
2026-04-29 22:39 43.79458 17.50441 22440 ft 358 kts 177°
2026-04-29 22:39 43.77006 17.50961 22111 ft 355 kts 176°
2026-04-29 22:39 43.74571 17.51477 21791 ft 353 kts 177°
2026-04-29 22:40 43.72149 17.51989 21448 ft 351 kts 177°
2026-04-29 22:40 43.69738 17.52497 21109 ft 350 kts 177°
2026-04-29 22:40 43.67344 17.53003 20769 ft 347 kts 176°
2026-04-29 22:40 43.64960 17.53503 20446 ft 346 kts 177°
2026-04-29 22:41 43.62588 17.54003 20120 ft 344 kts 177°
2026-04-29 22:41 43.60226 17.54502 19801 ft 343 kts 177°
2026-04-29 22:41 43.57874 17.54998 19475 ft 341 kts 177°
2026-04-29 22:41 43.55532 17.55493 19152 ft 341 kts 177°
2026-04-29 22:42 43.53192 17.55985 18831 ft 340 kts 177°
2026-04-29 22:42 43.50864 17.56471 18522 ft 338 kts 177°
2026-04-29 22:42 43.48540 17.56960 18138 ft 337 kts 177°
2026-04-29 22:42 43.46225 17.57448 17794 ft 335 kts 177°
2026-04-29 22:43 43.43925 17.57931 17440 ft 334 kts 177°
2026-04-29 22:43 43.41639 17.58410 17108 ft 331 kts 177°
2026-04-29 22:43 43.39373 17.58885 16800 ft 329 kts 177°
2026-04-29 22:43 43.37145 17.59352 16487 ft 327 kts 177°
2026-04-29 22:44 43.34901 17.59822 16173 ft 325 kts 177°
2026-04-29 22:44 43.32671 17.60286 15858 ft 324 kts 177°
2026-04-29 22:44 43.30448 17.60749 15536 ft 322 kts 177°
2026-04-29 22:44 43.28237 17.61210 15223 ft 321 kts 177°
2026-04-29 22:45 43.26035 17.61670 14916 ft 319 kts 177°
2026-04-29 22:45 43.23847 17.62125 14585 ft 318 kts 177°
2026-04-29 22:45 43.21662 17.62579 14280 ft 317 kts 177°
2026-04-29 22:45 43.19487 17.63031 13977 ft 315 kts 177°
2026-04-29 22:46 43.17322 17.63480 13641 ft 315 kts 176°
2026-04-29 22:46 43.15159 17.63928 13305 ft 314 kts 176°
2026-04-29 22:46 43.13003 17.64376 12981 ft 312 kts 176°
2026-04-29 22:46 43.10860 17.64821 12678 ft 311 kts 176°
2026-04-29 22:47 43.08731 17.65262 12368 ft 309 kts 176°
2026-04-29 22:47 43.06613 17.65701 12056 ft 307 kts 176°
2026-04-29 22:47 43.04513 17.65846 11723 ft 298 kts 195°
2026-04-29 22:47 43.02584 17.64889 11132 ft 298 kts 215°
2026-04-29 22:48 43.00846 17.63351 10729 ft 299 kts 216°
2026-04-29 22:48 42.99102 17.61803 10356 ft 299 kts 216°
2026-04-29 22:48 42.97385 17.60300 10171 ft 286 kts 216°
2026-04-29 22:48 42.95749 17.58879 10015 ft 272 kts 215°
2026-04-29 22:49 42.94178 17.57520 9823 ft 261 kts 215°
2026-04-29 22:49 42.92676 17.56243 9713 ft 248 kts 211°
2026-04-29 22:49 42.91037 17.55692 9642 ft 246 kts 180°
2026-04-29 22:49 42.89364 17.56301 9524 ft 257 kts 154°
2026-04-29 22:50 42.87901 17.57840 9312 ft 274 kts 137°
2026-04-29 22:50 42.86562 17.59716 9050 ft 278 kts 135°
2026-04-29 22:50 42.85226 17.61629 8771 ft 278 kts 135°
2026-04-29 22:50 42.83891 17.63530 8496 ft 278 kts 135°
2026-04-29 22:51 42.82548 17.65423 8222 ft 277 kts 135°
2026-04-29 22:51 42.81206 17.67300 7963 ft 276 kts 136°
2026-04-29 22:51 42.78528 17.71022 7427 ft 272 kts 136°
2026-04-29 22:52 42.77270 17.72893 7138 ft 267 kts 126°
2026-04-29 22:52 42.76413 17.75104 6916 ft 261 kts 117°
2026-04-29 22:52 42.75624 17.77297 6662 ft 255 kts 119°
2026-04-29 22:52 42.74815 17.79420 6418 ft 252 kts 120°
2026-04-29 22:53 42.74009 17.81501 6163 ft 252 kts 120°
2026-04-29 22:53 42.73172 17.83641 5893 ft 253 kts 120°
2026-04-29 22:53 42.72359 17.85714 5647 ft 251 kts 120°
2026-04-29 22:53 42.71534 17.87811 5391 ft 251 kts 120°
2026-04-29 22:54 42.70710 17.89909 5141 ft 251 kts 120°
2026-04-29 22:54 42.69886 17.92000 4899 ft 250 kts 120°
2026-04-29 22:54 42.69073 17.94068 4771 ft 243 kts 120°
2026-04-29 22:54 42.68319 17.96056 4698 ft 232 kts 120°
2026-04-29 22:55 42.67590 17.97946 4595 ft 219 kts 120°
2026-04-29 22:55 42.66891 17.99715 4523 ft 206 kts 121°
2026-04-29 22:55 42.66211 18.01425 4300 ft 206 kts 121°
2026-04-29 22:55 42.65528 18.03138 4048 ft 208 kts 120°
2026-04-29 22:56 42.65065 18.04303 3869 ft 206 kts 120°
2026-04-29 22:56 42.64389 18.06003 3590 ft 202 kts 119°
2026-04-29 22:56 42.63730 18.07668 3331 ft 199 kts 120°
2026-04-29 22:56 42.63090 18.09278 3061 ft 192 kts 119°
2026-04-29 22:57 42.62466 18.10843 2822 ft 179 kts 119°
2026-04-29 22:57 42.61724 18.12718 2540 ft 160 kts 119°
2026-04-29 22:57 42.61368 18.13614 2375 ft 157 kts 118°
2026-04-29 22:57 42.60868 18.14879 2161 ft 153 kts 117°
2026-04-29 22:58 42.60366 18.16142 1967 ft 152 kts 117°
2026-04-29 22:58 42.59862 18.17405 1753 ft 152 kts 118°
2026-04-29 22:58 42.59333 18.18651 1542 ft 155 kts 118°
2026-04-29 22:58 42.58847 18.19942 1333 ft 153 kts 114°
2026-04-29 22:59 42.58359 18.21233 1151 ft 153 kts 115°
2026-04-29 22:59 42.57856 18.22507 943 ft 153 kts 117°
2026-04-29 22:59 42.57360 18.23769 722 ft 150 kts 116°
2026-04-29 22:59 42.56860 18.24993 568 ft 146 kts 115°
2026-04-29 23:00 42.56394 18.26174 533 ft 128 kts 118°
2026-04-29 23:00 42.56045 18.27056 533 ft 85 kts 118°
2026-04-29 23:00 42.55838 18.27579 530 ft 41 kts 118°
2026-04-29 23:00 42.55762 18.27772 530 ft 15 kts 117°
2026-04-29 23:01 42.55712 18.27895 531 ft 15 kts 119°
2026-04-29 23:01 42.55664 18.28013 531 ft 14 kts 119°
2026-04-29 23:01 42.55599 18.28103 532 ft 13 kts 143°
2026-04-29 23:01 42.55525 18.28163 533 ft 13 kts 191°
2026-04-29 23:02 42.55468 18.28079 533 ft 13 kts 261°
2026-04-29 23:02 42.55494 18.27970 533 ft 12 kts 299°
2026-04-29 23:02 42.55535 18.27869 533 ft 12 kts 299°
2026-04-29 23:02 42.55575 18.27767 533 ft 14 kts 299°
2026-04-29 23:03 42.55635 18.27616 533 ft 21 kts 298°
2026-04-29 23:03 42.55708 18.27434 533 ft 22 kts 298°
2026-04-29 23:03 42.55779 18.27255 533 ft 21 kts 298°
2026-04-29 23:03 42.55847 18.27083 533 ft 21 kts 298°
2026-04-29 23:04 42.55914 18.26914 533 ft 20 kts 299°
2026-04-29 23:04 42.55970 18.26770 533 ft 16 kts 298°
2026-04-29 23:04 42.56008 18.26675 533 ft 9 kts 299°
2026-04-29 23:04 42.56038 18.26600 533 ft 9 kts 299°
2026-04-29 23:05 42.56068 18.26527 533 ft 9 kts 298°
2026-04-29 23:05 42.56096 18.26455 533 ft 8 kts 298°
2026-04-29 23:05 42.56124 18.26386 533 ft 8 kts 298°
2026-04-29 23:05 42.56132 18.26342 533 ft 1 kts 243°
2026-04-29 23:06 42.56126 18.26333 533 ft 1 kts 227°
2026-04-29 23:06 42.56120 18.26327 533 ft 1 kts 218°
2026-04-29 23:06 42.56113 18.26321 533 ft 1 kts 212°
2026-04-29 23:06 42.56107 18.26316 533 ft 1 kts 209°
2026-04-29 23:07 42.56100 18.26311 533 ft 1 kts 208°
2026-04-29 23:07 42.56094 18.26307 533 ft 1 kts 208°
2026-04-29 23:07 42.56092 18.26305 533 ft 0 kts 208°